Meteor 2-1 Rocket - Orbit

View from above orbital plane
View from above orbital plane
View from above satellite
View from above satellite

Ground track
Ground track

The orbit data is extracted from the following two-line orbital elements,

1 08027U 75064B   13145.34269692  .00000235  00000-0  13074-3 0  8058
2 08027 081.2993 044.6046 0054383 133.1579 345.5932 14.07133215943786
Epoch (UTC): 25 May 2013 08:13:29
Eccentricity: 0.0054383
inclination: 81.2993°
perigee height: 830 km
apogee height: 908 km
right ascension of ascending node: 44.6046°
argument of perigee: 133.1579°
revolutions per day: 14.07133215
mean anomaly at epoch: 345.5932°
orbit number at epoch: 94378

The dashed part of the orbit path shows where the satellite is in the earth's shadow,  

Developed and maintained by Chris Peat, Heavens-Above GmbH. Please read the updated FAQ before sending e-mail. Imprint. DLR